Temperature
4 4 4 4 5 5 6 6 6 7 8 8 8 9 9 10 10 10 11 12 13 13 14 14 14 14 14 14 14 14 14 15 15 14 14 14 15 15 15 14 14 14 14 14
4 4 5 5 5 6 6 6 6 7 8 8 8 9 9 10 10 10 11 12 13 13 13 14 14 14 14 14 14 14 14 14 14 14 14 14 14 15 15 15 14 14 14 14
4 5 6 5 5 5 6 6 6 7 8 8 8 9 9 10 10 11 11 12 13 13 13 14 14 15 15 15 15 15 14 14 14 14 14 14 14 14 14 14 14 14 14 14
4 5 6 5 6 6 6 7 7 7 7 7 8 8 9 9 9 10 11 11 12 13 14 14 14 15 15 15 15 15 15 15 15 14 14 14 14 14 14 14 14 14 14 14
5 5 5 6 6 6 6 7 7 7 7 7 7 8 8 9 9 10 10 11 12 13 14 14 15 15 15 15 15 15 15 15 15 14 14 14 14 14 14 14 14 14 14 14
5 6 6 6 6 6 7 7 7 7 7 7 7 7 8 8 9 10 10 11 12 13 14 14 15 15 15 15 15 15 15 15 15 15 14 14 14 14 14 14 14 14 13 13
5 6 6 6 6 6 7 6 6 6 6 7 7 8 8 9 9 9 10 11 12 12 13 14 14 15 15 15 15 15 15 15 15 15 14 14 14 14 14 14 13 13 13 13
5 5 6 6 7 6 6 7 6 7 6 7 7 7 8 9 8 9 10 10 11 12 13 13 14 14 15 15 15 15 15 15 15 14 14 14 14 14 14 13 13 13 13 13
5 6 7 7 7 7 7 6 7 6 6 7 7 7 8 9 8 8 8 9 10 12 12 13 13 14 14 14 14 14 14 14 14 14 14 14 14 13 13 13 13 13 13 12
6 6 6 7 7 7 7 6 6 6 7 7 8 8 7 8 8 7 7 8 9 11 12 12 13 13 13 14 14 14 14 14 14 13 13 13 13 13 13 13 12 12 12 12
6 5 6 6 6 6 7 7 6 5 6 7 7 8 8 7 7 7 6 7 8 10 11 11 12 12 13 13 13 13 13 13 13 13 13 13 12 12 12 12 12 12 11 11
6 5 5 6 6 7 7 7 6 6 6 5 6 7 7 5 6 6 6 7 8 9 10 10 11 11 12 12 12 12 12 12 12 12 12 12 12 11 11 11 11 11 11 10
6 5 5 6 6 6 7 7 6 6 5 5 5 7 7 5 5 6 6 6 7 8 9 10 10 11 11 11 11 11 11 11 11 11 11 11 11 10 10 10 10 10 10 10
6 5 5 5 6 6 6 7 7 6 5 5 6 6 7 6 6 5 6 6 7 7 8 9 9 9 10 10 10 10 10 10 10 10 10 10 10 9 9 9 9 9 9 9
6 5 5 5 6 6 6 6 7 6 6 6 6 6 6 6 5 5 5 6 6 6 7 7 8 8 9 9 9 10 10 10 10 10 9 9 9 8 8 8 8 8 8 8
5 5 5 5 6 6 6 6 6 6 6 6 6 6 5 5 5 5 4 5 5 5 5 6 7 7 8 8 8 9 9 9 9 9 9 8 8 8 7 7 8 8 8 8
4 5 5 4 5 6 6 5 5 6 5 6 6 5 4 4 4 3 3 3 4 4 4 5 6 6 6 7 7 8 8 8 8 8 8 8 7 7 7 7 7 7 7 7
4 4 3 4 5 5 5 5 5 4 4 4 4 3 3 3 3 3 3 3 3 4 4 5 5 5 6 6 6 7 7 7 7 7 7 7 7 7 6 6 6 6 6 6
4 4 3 3 4 4 5 5 4 5 4 3 3 2 2 3 3 2 2 2 3 3 3 4 4 4 5 5 5 6 6 6 6 7 7 7 6 6 6 6 6 6 5 5
3 3 3 4 4 5 5 4 4 5 4 2 2 2 2 3 2 2 2 2 2 3 3 3 3 4 4 4 4 5 5 6 6 6 6 6 6 6 6 5 5 5 5 4
4 3 3 3 4 3 4 3 4 4 4 2 2 2 1 1 1 1 1 2 2 2 2 2 3 3 3 3 3 4 4 5 5 5 5 5 5 5 5 5 4 4 4 3
3 3 3 3 3 3 2 3 3 2 2 2 2 1 1 1 1 1 1 1 1 1 1 1 2 2 2 2 2 3 3 3 3 4 4 4 4 4 4 4 4 3 3 3
1 2 2 2 3 2 1 2 2 2 2 1 1 1 1 0 0 0 0 0 0 0 0 0 0 1 1 1 1 1 2 2 2 3 3 3 3 3 3 3 3 3 3 2
1 1 1 1 1 1 1 1 2 2 1 1 1 0 0 -0 -0 -0 -0 -1 -1 -1 -1 -0 -0 -0 0 0 0 1 1 1 1 2 2 2 3 3 3 2 2 2 2 2
1 0 1 1 1 0 1 1 1 1 1 0 0 -0 -0 -1 -1 -1 -1 -1 -1 -1 -1 -1 -1 -1 -1 -1 -0 -0 0 0 0 1 1 1 2 2 2 2 2 2 2 2
-1 -0 0 1 1 -0 1 1 1 0 0 -0 -0 -0 -1 -1 -1 -2 -2 -2 -2 -2 -2 -2 -2 -2 -1 -1 -1 -1 -1 -1 -1 -0 0 0 1 1 1 1 1 1 1 1
Wind_Speed
2 1 4 6 7 4 2 4 3 3 2 2 4 5 4 2 2 3 4 4 5 6 5 4 4 6 7 8 10 12 12 12 10 7 7 6 6 6 5 5 8 11 11 12
1 5 6 4 5 5 4 4 3 1 2 2 3 5 5 5 5 6 6 6 7 5 5 5 4 4 8 9 10 11 12 11 11 9 7 5 4 4 4 4 6 8 10 11
4 4 3 5 6 7 6 7 5 2 0 0 1 3 4 4 4 5 6 6 6 7 8 7 6 5 6 8 10 9 10 11 12 10 6 4 3 2 2 4 4 5 8 9
3 4 4 4 5 7 5 5 6 5 3 1 3 2 4 4 5 7 8 7 7 8 7 6 6 6 6 7 7 8 9 9 10 10 9 9 8 7 7 6 5 5 6 7
2 2 2 3 4 6 4 4 5 4 3 1 2 2 5 2 5 9 9 9 9 8 7 7 6 6 5 5 5 5 6 7 7 8 10 10 8 6 5 5 6 5 3 5
4 2 1 2 1 5 4 5 5 3 2 1 3 4 4 3 6 6 7 7 7 7 6 5 4 3 3 2 3 3 4 4 5 7 8 9 10 8 7 7 7 5 4 3
3 2 2 0 3 2 3 5 3 2 1 2 2 3 6 5 5 7 7 6 5 5 4 2 2 2 2 2 3 4 5 4 4 5 6 7 7 8 9 8 8 7 5 4
1 3 3 1 1 3 3 2 4 4 4 0 1 3 5 5 4 2 1 1 1 1 1 0 1 0 1 1 2 3 3 3 3 3 3 3 5 5 5 6 7 7 5 5
1 2 3 2 2 4 3 1 1 4 3 2 1 4 5 4 6 6 3 2 1 1 2 3 3 2 2 1 1 2 2 2 2 2 2 2 3 4 4 5 6 6 6 6
1 1 3 3 3 3 2 2 3 3 3 2 1 2 3 6 6 6 4 3 2 3 4 4 4 4 4 3 2 3 2 2 2 2 1 2 2 3 4 5 6 7 7 8
2 2 2 3 1 0 2 2 3 3 2 4 2 3 2 5 4 2 4 4 4 5 6 5 6 5 5 5 4 4 3 2 1 1 2 2 3 4 5 5 6 7 7 8
2 3 2 2 3 1 1 1 3 3 1 2 3 3 5 3 2 3 5 6 7 7 6 6 7 7 7 6 5 4 2 1 0 1 2 3 3 4 5 6 6 7 8 7
3 3 3 4 4 3 1 1 2 4 4 3 3 3 5 5 6 6 6 6 7 8 9 8 8 8 7 6 5 4 3 2 1 1 3 3 4 5 5 6 6 7 8 8
4 3 3 4 3 2 1 1 2 3 3 2 3 2 3 4 5 5 6 6 7 8 8 9 9 8 7 6 6 5 4 2 1 1 3 4 5 5 6 6 6 7 7 7
4 3 2 1 2 0 0 0 1 3 4 4 4 3 2 1 2 3 4 6 8 9 10 9 8 8 8 8 7 6 5 3 2 2 3 4 4 5 6 6 6 6 7 7
3 3 2 3 4 2 2 2 0 1 1 2 1 1 1 2 4 5 6 7 8 8 9 9 9 9 8 8 8 7 6 5 3 3 4 4 5 6 6 6 7 7 7 6
2 3 2 2 4 3 3 3 2 1 1 2 3 2 1 2 3 4 4 6 6 7 8 9 8 8 8 8 7 8 7 5 3 3 3 4 5 6 6 7 7 7 7 6
4 3 3 1 3 2 3 2 1 3 2 2 2 2 1 1 3 4 4 5 6 7 8 8 8 8 7 7 7 7 6 5 4 3 4 4 5 6 6 7 7 7 5 6
3 5 3 2 0 5 3 1 1 2 0 1 1 2 3 2 2 2 4 5 5 6 6 7 7 7 7 8 7 7 6 5 4 4 4 4 5 6 7 8 8 6 6 6
4 4 4 2 1 4 2 1 2 2 1 1 2 2 2 3 1 2 4 6 6 6 6 7 7 7 7 8 7 7 6 5 5 5 5 4 5 7 8 8 7 5 6 6
2 2 3 3 3 5 3 4 0 3 3 1 2 1 1 1 2 4 6 6 6 6 7 7 7 7 7 8 7 7 7 6 6 5 4 4 5 7 7 6 6 6 6 6
5 4 4 4 4 6 2 1 3 3 2 2 1 1 1 2 4 4 5 6 7 7 7 7 7 8 7 7 7 8 8 7 6 5 4 4 4 5 5 7 7 7 8 8
4 5 4 6 5 1 1 1 1 2 3 1 0 1 1 3 4 5 6 6 7 7 7 7 7 8 8 7 6 8 8 7 6 5 5 4 4 4 5 7 8 7 8 7
2 2 2 2 3 2 1 1 1 2 2 1 1 1 2 3 5 6 6 7 7 7 7 7 7 8 9 8 8 7 8 8 6 6 5 4 4 4 5 6 7 8 8 8
4 4 3 3 3 1 3 4 3 2 1 0 1 1 3 4 5 6 6 7 7 7 7 7 7 9 10 9 9 8 8 7 7 6 5 4 4 5 6 6 7 8 9 9
4 6 6 5 5 5 4 4 4 3 2 2 2 3 3 4 6 6 7 7 7 8 7 8 8 9 9 9 9 9 8 7 7 6 5 4 4 4 5 5 6 10 10 13
Wind_Direction
158 184 222 209 205 219 175 166 189 215 253 193 209 243 262 253 218 216 223 233 245 255 275 273 234 203 191 196 200 199 197 192 184 186 190 191 199 197 190 191 198 201 196 189
158 244 243 223 211 219 207 202 218 260 236 201 215 249 245 223 216 219 218 224 239 252 270 269 249 207 198 197 200 197 198 194 193 196 193 187 180 190 191 179 187 199 196 188
210 238 222 207 203 195 214 215 209 195 78 150 158 272 243 233 220 231 232 228 235 241 249 253 253 229 209 201 198 199 198 196 198 194 176 154 140 123 172 192 192 198 193 184
256 253 225 210 208 192 215 209 199 187 162 176 166 233 260 221 230 230 235 239 245 248 245 244 246 242 222 218 202 195 196 199 196 188 186 181 185 193 200 196 185 177 173 168
278 239 208 206 212 186 192 169 165 163 148 110 135 175 278 214 230 232 230 235 242 245 241 241 237 235 226 210 201 196 190 191 189 187 190 191 196 197 179 168 166 165 156 147
265 258 243 234 187 172 147 111 99 81 94 163 194 173 275 234 229 235 227 230 240 243 241 243 242 229 220 170 164 167 176 186 181 184 191 191 194 183 171 174 174 169 158 146
343 330 335 102 102 120 128 125 115 97 133 231 185 169 257 269 257 235 224 224 231 229 219 223 235 223 209 167 160 161 170 179 173 180 192 195 194 186 187 184 182 175 170 171
15 346 340 5 125 142 148 138 146 154 172 182 141 220 269 306 308 280 197 189 207 228 217 122 329 255 192 162 147 153 163 158 153 173 188 184 182 185 188 183 174 174 171 163
122 335 344 11 37 116 132 173 156 113 100 102 245 292 316 360 15 23 40 68 49 345 39 40 22 30 53 71 107 148 148 133 132 147 159 164 170 175 174 165 158 154 148 143
149 66 343 341 54 33 124 148 97 106 130 116 351 308 300 328 347 9 32 47 31 30 37 32 27 29 43 54 54 69 93 111 113 125 154 146 145 151 149 151 151 147 143 137
134 101 6 39 51 106 65 74 96 96 114 134 150 281 300 280 294 352 33 40 42 42 36 29 26 29 43 49 54 56 61 76 98 128 136 126 122 127 133 138 141 140 137 139
146 107 56 316 284 250 206 169 144 128 120 114 132 273 330 309 334 73 60 43 41 44 39 35 32 31 34 33 30 31 33 47 82 137 136 139 136 134 135 137 138 139 138 135
130 98 70 4 349 1 18 65 125 112 105 121 136 273 349 37 49 52 59 48 41 39 36 31 29 26 22 17 12 8 5 358 353 156 157 159 158 155 150 145 141 139 136 133
117 91 138 176 243 234 264 306 153 122 128 159 203 227 341 29 51 46 47 46 44 40 35 31 24 16 10 5 359 351 343 337 317 193 180 184 180 168 157 149 144 142 139 138
90 89 81 13 327 141 14 287 151 154 171 175 201 196 256 334 64 57 53 50 45 34 27 22 14 5 1 358 352 345 333 322 299 228 208 203 180 161 154 151 147 142 140 142
65 100 62 18 11 41 33 3 138 180 176 174 150 272 341 63 66 57 49 48 40 25 14 7 3 358 354 347 340 334 326 313 286 242 227 200 173 167 166 160 151 146 144 142
70 98 80 341 328 22 329 305 208 165 111 174 197 222 65 66 65 58 49 45 33 13 2 356 349 340 334 330 328 323 315 309 287 256 231 198 183 180 176 164 158 159 158 152
114 95 98 63 34 259 263 336 147 128 65 28 78 46 39 82 105 79 59 42 16 359 350 343 336 331 327 323 322 317 315 308 289 267 242 209 191 187 175 169 173 169 160 162
116 121 104 100 270 287 300 2 116 144 333 7 77 48 30 28 92 47 32 21 358 341 332 326 322 317 318 321 321 322 320 313 298 280 259 227 201 190 182 186 184 173 166 170
62 91 109 120 174 252 272 308 308 118 289 14 91 76 33 57 64 303 353 349 341 334 327 325 324 322 324 323 323 324 320 315 301 291 277 246 210 198 197 195 184 174 172 176
97 84 129 159 230 268 277 296 25 167 253 116 106 91 66 54 247 298 326 330 326 322 321 324 326 326 320 319 324 323 319 310 302 297 283 255 223 209 201 189 179 172 170 168
172 164 181 165 208 254 339 66 156 194 120 111 105 64 345 289 302 314 320 319 322 323 324 325 326 324 321 321 326 322 314 308 306 296 280 260 235 213 193 181 179 175 173 176
193 189 188 193 212 243 0 144 122 139 137 146 157 313 314 303 307 313 314 315 314 316 317 319 319 319 320 322 322 314 312 312 308 298 284 270 245 214 192 188 186 184 186 189
235 164 160 232 244 216 187 144 111 117 141 156 194 282 299 294 300 307 309 312 314 313 312 314 315 315 316 318 316 307 308 309 303 293 286 271 245 227 208 201 196 195 195 197
205 168 183 238 240 203 228 211 188 152 126 133 301 293 288 291 295 299 303 304 306 306 305 307 307 307 307 310 310 308 306 305 300 293 283 268 246 232 222 215 212 208 209 204
193 179 181 216 207 190 219 197 180 185 218 251 282 296 293 285 288 295 294 296 299 301 304 305 304 302 303 305 304 306 305 298 293 291 282 268 252 240 230 224 228 222 218 220
Height
1465 1467 1466 1464 1464 1464 1464 1465 1465 1464 1461 1462 1462 1463 1462 1461 1462 1462 1463 1465 1468 1471 1473 1475 1477 1479 1483 1486 1490 1494 1497 1500 1504 1507 1510 1513 1516 1519 1522 1525 1528 1531 1533 1535
1466 1464 1461 1461 1461 1463 1463 1465 1466 1463 1461 1462 1463 1463 1461 1460 1460 1461 1462 1464 1466 1468 1471 1473 1475 1478 1480 1483 1487 1490 1494 1497 1500 1503 1506 1510 1513 1516 1519 1522 1524 1527 1530 1532
1463 1461 1458 1459 1460 1462 1462 1464 1464 1464 1463 1462 1463 1463 1460 1458 1458 1459 1460 1462 1463 1465 1468 1470 1473 1475 1478 1480 1484 1487 1490 1493 1496 1499 1502 1506 1509 1512 1515 1517 1520 1523 1525 1528
1460 1458 1457 1457 1457 1458 1460 1459 1461 1463 1465 1467 1466 1468 1460 1457 1457 1457 1457 1458 1459 1462 1465 1467 1470 1472 1475 1478 1481 1484 1487 1489 1492 1496 1498 1501 1504 1507 1510 1513 1515 1519 1522 1524
1459 1456 1456 1455 1454 1455 1457 1457 1460 1462 1465 1467 1467 1469 1463 1457 1457 1455 1454 1454 1456 1459 1461 1464 1467 1469 1472 1475 1478 1481 1484 1486 1489 1492 1495 1498 1501 1504 1507 1509 1512 1515 1517 1520
1457 1455 1455 1453 1453 1454 1456 1459 1461 1464 1466 1470 1467 1469 1464 1458 1453 1451 1451 1451 1452 1455 1458 1461 1464 1466 1469 1472 1475 1478 1481 1484 1486 1489 1492 1495 1497 1500 1502 1505 1507 1510 1513 1516
1458 1455 1454 1453 1454 1456 1457 1461 1466 1469 1471 1470 1465 1465 1461 1452 1450 1448 1447 1448 1450 1453 1456 1458 1461 1464 1466 1469 1473 1476 1478 1481 1484 1486 1489 1491 1494 1496 1499 1501 1504 1506 1509 1511
1460 1460 1455 1454 1454 1455 1457 1460 1465 1467 1470 1470 1466 1465 1459 1452 1449 1447 1447 1448 1450 1452 1454 1456 1459 1461 1464 1467 1470 1473 1475 1478 1481 1483 1486 1488 1490 1492 1495 1497 1499 1502 1505 1507
1460 1460 1455 1454 1454 1454 1457 1460 1460 1465 1468 1469 1468 1464 1457 1451 1450 1448 1448 1449 1450 1452 1453 1455 1458 1460 1462 1465 1468 1470 1473 1475 1478 1480 1483 1485 1487 1489 1491 1493 1495 1498 1500 1503
1459 1460 1457 1456 1455 1456 1457 1458 1463 1465 1466 1467 1466 1465 1465 1457 1455 1453 1452 1451 1451 1452 1453 1455 1457 1459 1461 1464 1466 1468 1471 1473 1475 1477 1480 1481 1483 1485 1487 1489 1491 1493 1496 1498
1458 1461 1461 1459 1459 1459 1459 1460 1462 1467 1466 1469 1470 1469 1461 1460 1457 1456 1455 1453 1453 1453 1454 1456 1457 1459 1461 1463 1465 1467 1469 1470 1472 1474 1476 1478 1479 1481 1483 1485 1487 1489 1491 1494
1458 1463 1464 1462 1459 1458 1458 1458 1461 1465 1469 1472 1473 1473 1460 1459 1457 1456 1456 1455 1455 1455 1456 1457 1458 1459 1461 1462 1464 1466 1467 1469 1470 1471 1472 1474 1476 1477 1479 1481 1483 1485 1487 1490
1458 1463 1468 1467 1466 1461 1459 1458 1460 1464 1471 1476 1476 1471 1462 1460 1459 1459 1458 1458 1458 1457 1458 1458 1459 1460 1461 1462 1463 1465 1466 1466 1467 1468 1469 1471 1472 1473 1475 1477 1479 1482 1483 1485
1457 1464 1468 1469 1465 1463 1461 1459 1460 1463 1471 1472 1470 1468 1465 1463 1462 1462 1461 1461 1460 1460 1460 1461 1461 1461 1462 1463 1463 1464 1464 1464 1465 1466 1466 1467 1468 1470 1472 1474 1476 1478 1479 1481
1457 1464 1465 1466 1463 1462 1461 1461 1460 1462 1465 1467 1466 1466 1465 1465 1465 1464 1464 1463 1462 1462 1462 1462 1462 1462 1462 1462 1462 1462 1462 1462 1462 1463 1463 1464 1465 1466 1468 1470 1472 1474 1475 1477
1460 1464 1465 1466 1464 1463 1462 1462 1462 1463 1463 1464 1465 1467 1466 1466 1466 1466 1466 1465 1465 1465 1464 1464 1463 1462 1462 1461 1461 1460 1460 1460 1459 1459 1460 1460 1461 1463 1464 1466 1468 1469 1471 1473
1464 1466 1469 1471 1467 1462 1467 1465 1464 1464 1466 1465 1466 1468 1467 1467 1467 1468 1468 1467 1467 1466 1465 1464 1463 1462 1461 1460 1459 1458 1457 1456 1456 1455 1456 1456 1457 1459 1460 1462 1463 1465 1467 1469
1465 1468 1473 1474 1470 1473 1469 1466 1465 1466 1468 1468 1467 1468 1468 1468 1468 1469 1469 1468 1467 1466 1465 1464 1463 1461 1460 1458 1457 1455 1454 1453 1452 1452 1452 1452 1453 1454 1456 1457 1459 1461 1462 1464
1463 1468 1473 1476 1477 1473 1468 1466 1466 1467 1468 1470 1469 1469 1469 1468 1468 1469 1469 1468 1468 1467 1465 1464 1462 1460 1458 1456 1454 1452 1450 1449 1448 1448 1448 1448 1449 1450 1451 1453 1454 1456 1457 1459
1466 1468 1473 1476 1474 1472 1468 1467 1466 1467 1469 1470 1469 1470 1469 1468 1471 1471 1469 1468 1467 1465 1463 1461 1459 1457 1455 1453 1451 1449 1447 1445 1444 1444 1443 1444 1444 1445 1446 1448 1449 1451 1452 1453
1469 1471 1474 1475 1476 1473 1469 1466 1466 1472 1470 1470 1469 1470 1470 1470 1471 1471 1468 1466 1465 1463 1461 1459 1456 1454 1452 1450 1447 1445 1443 1441 1440 1439 1439 1439 1439 1440 1441 1442 1444 1445 1447 1448
1470 1473 1475 1475 1476 1475 1469 1467 1469 1470 1469 1469 1470 1470 1470 1469 1469 1467 1466 1464 1462 1460 1458 1455 1453 1451 1448 1446 1443 1441 1439 1437 1436 1435 1434 1434 1435 1435 1436 1437 1438 1439 1441 1442
1471 1471 1471 1472 1472 1469 1468 1468 1468 1468 1469 1469 1469 1469 1469 1468 1466 1465 1463 1461 1459 1457 1454 1452 1449 1447 1444 1442 1440 1437 1435 1433 1432 1430 1430 1429 1429 1430 1430 1431 1432 1433 1435 1436
1469 1468 1469 1470 1468 1467 1467 1467 1468 1468 1468 1468 1468 1468 1467 1466 1464 1462 1460 1458 1456 1453 1451 1448 1446 1443 1440 1438 1436 1433 1431 1429 1427 1426 1425 1424 1424 1424 1425 1426 1427 1428 1429 1430
1465 1467 1468 1468 1466 1466 1466 1466 1467 1467 1467 1467 1466 1465 1464 1463 1461 1459 1457 1455 1452 1450 1447 1445 1442 1439 1436 1433 1431 1429 1427 1425 1423 1421 1420 1419 1419 1419 1419 1420 1421 1422 1424 1425
1462 1463 1465 1464 1462 1463 1463 1464 1465 1465 1465 1464 1463 1462 1461 1460 1458 1456 1453 1451 1448 1446 1443 1440 1437 1434 1431 1429 1426 1424 1422 1420 1418 1416 1415 1414 1414 1414 1414 1415 1415 1416 1418 1419